Weather History for KJAC - November, 2012

Change the Weather History Date:

Tuesday, November 27, 2012

  Actual Average Record
Temperature  
Mean Temperature 17 °F -  
Max Temperature 28 °F 28 °F 46 °F (1998)
Min Temperature 6 °F 1 °F -18 °F (1967)
Degree Days  
Heating Degree Days 48    
Moisture  
Dew Point 12 °F    
Average Humidity 92    
Maximum Humidity 100    
Minimum Humidity 74    
Precipitation  
Precipitation 0.00 in - - ()
Sea Level Pressure  
Sea Level Pressure 30.27 in    
Wind  
Wind Speed 5 mph (North)    
Max Wind Speed 8 mph    
Max Gust Speed -    
Visibility 9 miles    
Events      
Averages and records for this station are not official NWS values.
T = Trace of Precipitation, MM = Missing Value Source: NWS Daily Summary

Daily Weather History Graph

Daily Weather History Graph

Search for Another Location

Airport or City:

Trip Planner

Search our weather history database for the weather conditions in past years. The results will help you decide how hot, cold, wet, or windy it might be!

Date:

Astronomy

Nov. 27, 2012 Rise Set
Actual Time 7:32 AM MST 4:48 PM MST
Civil Twilight 7:00 AM MST 5:20 PM MST
Nautical Twilight 6:25 AM MST 5:56 PM MST
Astronomical Twilight 5:50 AM MST 6:30 PM MST
Moon 4:23 PM MST (11/27) 6:39 AM MST (11/27)
Length of Visible Light 10h 20m
Length of Day
9h 16m
Waxing Gibbous, 99% of the Moon is Illuminated
Nov 27
Waxing Gibbous
Nov 28
Full
Dec 6
Last Quarter
Dec 13
New
Dec 19
First Quarter

Hourly Weather History & Observations

Time (MST) Temp. Windchill Dew Point Humidity Pressure Visibility Wind Dir Wind Speed Gust Speed Precip Events Conditions
12:15 AM 10.4 °F -0.4 °F 10.4 °F 100% 30.26 in 10.0 mi North 6.9 mph - N/A   Clear
12:35 AM 8.6 °F -1.3 °F 8.6 °F 100% 30.26 in 10.0 mi North 5.8 mph - N/A   Clear
12:55 AM 8.6 °F -3.7 °F 6.8 °F 92% 30.26 in 10.0 mi North 8.1 mph - N/A   Clear
1:55 AM 6.8 °F -4.8 °F 3.2 °F 85% 30.26 in 10.0 mi North 6.9 mph - N/A   Clear
2:35 AM 6.8 °F -0.1 °F 5.0 °F 92% 30.26 in 10.0 mi North 3.5 mph - N/A   Partly Cloudy
2:55 AM 6.8 °F -3.5 °F 6.8 °F 100% 30.26 in 0.5 mi North 5.8 mph - N/A   Overcast
3:15 AM 8.6 °F 0.1 °F 6.8 °F 92% 30.26 in 0.5 mi North 4.6 mph - N/A   Overcast
3:35 AM 8.6 °F 0.1 °F 6.8 °F 92% 30.26 in 4.0 mi North 4.6 mph - N/A   Mostly Cloudy
3:55 AM 8.6 °F 2.0 °F 8.6 °F 100% 30.26 in 10.0 mi North 3.5 mph - N/A   Partly Cloudy
4:15 AM 8.6 °F 2.0 °F 6.8 °F 92% 30.26 in 10.0 mi North 3.5 mph - N/A   Clear
4:35 AM 8.6 °F -1.3 °F 6.8 °F 92% 30.26 in 10.0 mi North 5.8 mph - N/A   Clear
4:55 AM 6.8 °F -3.5 °F 6.8 °F 100% 30.26 in 10.0 mi NNE 5.8 mph - N/A   Partly Cloudy
5:15 AM 8.6 °F -1.3 °F 6.8 °F 92% 30.26 in 10.0 mi North 5.8 mph - N/A   Scattered Clouds
5:35 AM 6.8 °F -3.5 °F 6.8 °F 100% 30.27 in 10.0 mi North 5.8 mph - N/A   Mostly Cloudy
5:55 AM 6.8 °F -2.0 °F 6.8 °F 100% 30.27 in 10.0 mi NNW 4.6 mph - N/A   Overcast
6:15 AM 8.6 °F 2.0 °F 6.8 °F 92% 30.28 in 10.0 mi North 3.5 mph - N/A   Overcast
6:35 AM 8.6 °F 0.1 °F 6.8 °F 92% 30.28 in 10.0 mi North 4.6 mph - N/A   Overcast
6:53 AM 8.6 °F 2.0 °F 6.8 °F 92% 30.28 in 10.0 mi North 3.5 mph - N/A   Scattered Clouds
6:55 AM 8.6 °F -1.3 °F 6.8 °F 92% 30.29 in 10.0 mi North 5.8 mph - N/A   Overcast
7:51 AM 12.2 °F - 10.4 °F 92% 30.30 in 10.0 mi Calm Calm - N/A   Mostly Cloudy
8:37 AM 12.2 °F - 10.4 °F 92% 30.31 in 10.0 mi Calm Calm - N/A   Mostly Cloudy
8:51 AM 14.0 °F - 12.2 °F 93% 30.31 in 10.0 mi Calm Calm - N/A   Mostly Cloudy
9:58 AM 14.0 °F - 14.0 °F 100% 30.31 in 10.0 mi Calm Calm - N/A   Overcast
10:55 AM 15.8 °F - 14.0 °F 93% 30.31 in 10.0 mi Calm Calm - N/A   Scattered Clouds
11:51 AM 19.4 °F - 15.8 °F 86% 30.29 in 10.0 mi Calm Calm - N/A   Scattered Clouds
12:51 PM 24.8 °F - 17.6 °F 74% 30.27 in 10.0 mi Calm Calm - N/A   Clear
1:51 PM 26.6 °F - 19.4 °F 74% 30.25 in 10.0 mi Calm Calm - N/A   Clear
2:53 PM 28.4 °F 24.6 °F 21.2 °F 74% 30.24 in 10.0 mi Variable 3.5 mph - N/A   Clear
3:55 PM 28.4 °F 20.4 °F 21.2 °F 74% 30.24 in 10.0 mi North 8.1 mph - N/A   Clear
4:53 PM 26.6 °F 18.2 °F 21.2 °F 80% 30.24 in 10.0 mi North 8.1 mph - N/A   Clear
5:53 PM 23.0 °F 18.4 °F 19.4 °F 86% 30.24 in 10.0 mi North 3.5 mph - N/A   Clear
6:51 PM 21.2 °F - 19.4 °F 93% 30.25 in 10.0 mi Calm Calm - N/A   Clear
7:55 PM 19.4 °F - 15.8 °F 86% 30.25 in 10.0 mi Calm Calm - N/A   Clear
8:51 PM 15.8 °F 5.1 °F 15.8 °F 100% 30.25 in 10.0 mi North 8.1 mph - N/A   Clear
8:55 PM 15.8 °F 5.1 °F 15.8 °F 100% 30.25 in 10.0 mi NNE 8.1 mph - N/A   Clear
9:15 PM 15.8 °F 6.1 °F 14.0 °F 93% 30.25 in 10.0 mi North 6.9 mph - N/A   Clear
9:35 PM 14.0 °F 3.9 °F 14.0 °F 100% 30.26 in 10.0 mi North 6.9 mph - N/A   Clear
9:55 PM 14.0 °F 2.9 °F 14.0 °F 100% 30.26 in 10.0 mi North 8.1 mph - N/A   Clear
10:15 PM 14.0 °F 2.9 °F 14.0 °F 100% 30.26 in 10.0 mi North 8.1 mph - N/A   Clear
10:35 PM 15.8 °F 5.1 °F 14.0 °F 93% 30.27 in 10.0 mi North 8.1 mph - N/A   Clear
10:55 PM 14.0 °F 6.5 °F 12.2 °F 93% 30.27 in 10.0 mi NNE 4.6 mph - N/A   Clear
11:15 PM 14.0 °F 6.5 °F 12.2 °F 93% 30.27 in 10.0 mi NNE 4.6 mph - N/A   Clear
11:35 PM 12.2 °F 1.7 °F 12.2 °F 100% 30.27 in 10.0 mi North 6.9 mph - N/A   Clear
11:55 PM 12.2 °F 1.7 °F 10.4 °F 92% 30.27 in 10.0 mi North 6.9 mph - N/A   Clear